N44AR KLAX-KSAN

Flight info

Callsign N44AR
Flight time 0h 27m
Altitude 15000
Route LAXX1 MZB
Aircraft C750/M-SBDE3FGHRWXY/S

Departure

Time 2026-04-26 22:56
Airport Los Angeles International Airport (KLAX)

Arrival

Time 2026-04-26 23:23
Airport San Diego International Airport (KSAN)
Time Latitude Longitude Altitude Speed Heading
2026-04-26 22:36 33.93362 -118.39411 122 ft 0 kts 271°
2026-04-26 22:49 33.93362 -118.39412 122 ft 2 kts 271°
2026-04-26 22:49 33.93362 -118.39411 120 ft 2 kts 271°
2026-04-26 22:49 33.93362 -118.39395 122 ft 2 kts 271°
2026-04-26 22:50 33.93362 -118.39390 122 ft 0 kts 271°
2026-04-26 22:52 33.93368 -118.39393 122 ft 2 kts 346°
2026-04-26 22:52 33.93408 -118.39388 120 ft 9 kts
2026-04-26 22:53 33.93485 -118.39376 122 ft 11 kts 34°
2026-04-26 22:53 33.93509 -118.39297 120 ft 11 kts 81°
2026-04-26 22:53 33.93520 -118.39187 120 ft 16 kts 84°
2026-04-26 22:53 33.93536 -118.39030 119 ft 21 kts 83°
2026-04-26 22:54 33.93552 -118.38844 120 ft 22 kts 81°
2026-04-26 22:54 33.93573 -118.38664 122 ft 21 kts 82°
2026-04-26 22:54 33.93591 -118.38493 119 ft 20 kts 83°
2026-04-26 22:54 33.93608 -118.38332 122 ft 15 kts 80°
2026-04-26 22:55 33.93683 -118.38282 122 ft 13 kts 349°
2026-04-26 22:55 33.93728 -118.38367 122 ft 26 kts 264°
2026-04-26 22:55 33.93635 -118.39062 122 ft 128 kts 263°
2026-04-26 22:55 33.93535 -118.40183 671 ft 134 kts 262°
2026-04-26 22:56 33.93468 -118.41354 1271 ft 150 kts 262°
2026-04-26 22:56 33.93383 -118.42708 1784 ft 174 kts 263°
2026-04-26 22:56 33.93282 -118.44258 2293 ft 197 kts 263°
2026-04-26 22:56 33.92840 -118.45866 2577 ft 219 kts 239°
2026-04-26 22:57 33.91856 -118.47419 2914 ft 246 kts 232°
2026-04-26 22:57 33.90770 -118.49037 3597 ft 254 kts 232°
2026-04-26 22:57 33.89662 -118.50688 4474 ft 252 kts 232°
2026-04-26 22:57 33.88549 -118.52342 5015 ft 263 kts 232°
2026-04-26 22:58 33.87397 -118.54052 5001 ft 259 kts 232°
2026-04-26 22:58 33.86259 -118.55742 5003 ft 261 kts 232°
2026-04-26 22:58 33.85116 -118.57438 5001 ft 260 kts 232°
2026-04-26 22:58 33.83977 -118.59131 4996 ft 261 kts 232°
2026-04-26 22:59 33.82833 -118.60827 4996 ft 261 kts 232°
2026-04-26 22:59 33.81692 -118.62519 4998 ft 260 kts 232°
2026-04-26 22:59 33.80542 -118.64195 4984 ft 260 kts 230°
2026-04-26 22:59 33.78946 -118.65335 5010 ft 287 kts 199°
2026-04-26 23:00 33.77032 -118.65775 6436 ft 267 kts 191°
2026-04-26 23:00 33.75205 -118.66115 7681 ft 270 kts 191°
2026-04-26 23:00 33.73317 -118.66477 8709 ft 277 kts 192°
2026-04-26 23:00 33.71400 -118.66808 9726 ft 284 kts 187°
2026-04-26 23:01 33.69417 -118.66304 10361 ft 307 kts 158°
2026-04-26 23:01 33.67715 -118.64604 10468 ft 344 kts 130°
2026-04-26 23:01 33.66452 -118.62013 10551 ft 374 kts 117°
2026-04-26 23:01 33.65333 -118.59085 10645 ft 398 kts 116°
2026-04-26 23:02 33.64055 -118.56045 10932 ft 411 kts 121°
2026-04-26 23:02 33.62553 -118.53127 11647 ft 413 kts 124°
2026-04-26 23:02 33.61019 -118.50180 12124 ft 421 kts 122°
2026-04-26 23:02 33.59579 -118.47103 12712 ft 419 kts 120°
2026-04-26 23:03 33.58169 -118.44012 13000 ft 430 kts 121°
2026-04-26 23:03 33.56661 -118.40918 12989 ft 428 kts 123°
2026-04-26 23:03 33.55124 -118.37852 12991 ft 429 kts 122°
2026-04-26 23:03 33.53629 -118.34759 13004 ft 429 kts 121°
2026-04-26 23:04 33.52151 -118.31635 12998 ft 433 kts 121°
2026-04-26 23:04 33.50638 -118.28501 13006 ft 443 kts 122°
2026-04-26 23:04 33.49073 -118.25317 13008 ft 444 kts 122°
2026-04-26 23:04 33.47517 -118.22121 13009 ft 445 kts 122°
2026-04-26 23:05 33.45971 -118.18913 13009 ft 446 kts 122°
2026-04-26 23:05 33.44413 -118.15697 12987 ft 446 kts 122°
2026-04-26 23:05 33.42847 -118.12493 12987 ft 446 kts 122°
2026-04-26 23:05 33.41281 -118.09284 12988 ft 446 kts 122°
2026-04-26 23:06 33.39723 -118.06083 12987 ft 446 kts 122°
2026-04-26 23:06 33.38160 -118.02870 12989 ft 446 kts 122°
2026-04-26 23:06 33.36594 -117.99666 12979 ft 446 kts 122°
2026-04-26 23:06 33.35046 -117.96506 12980 ft 447 kts 122°
2026-04-26 23:07 33.33479 -117.93301 12982 ft 446 kts 122°
2026-04-26 23:07 33.31911 -117.90094 12981 ft 447 kts 122°
2026-04-26 23:07 33.30342 -117.86893 12981 ft 446 kts 122°
2026-04-26 23:07 33.28771 -117.83691 12981 ft 446 kts 122°
2026-04-26 23:08 33.27204 -117.80499 12986 ft 446 kts 122°
2026-04-26 23:08 33.25631 -117.77297 12995 ft 446 kts 122°
2026-04-26 23:08 33.24060 -117.74102 12997 ft 446 kts 122°
2026-04-26 23:08 33.22485 -117.70906 12998 ft 446 kts 122°
2026-04-26 23:09 33.20912 -117.67708 12999 ft 446 kts 122°
2026-04-26 23:09 33.19338 -117.64514 13001 ft 446 kts 122°
2026-04-26 23:09 33.17762 -117.61322 13002 ft 447 kts 122°
2026-04-26 23:09 33.16182 -117.58126 13002 ft 447 kts 122°
2026-04-26 23:10 33.14628 -117.54982 13004 ft 446 kts 123°
2026-04-26 23:10 33.13052 -117.51794 13004 ft 446 kts 123°
2026-04-26 23:10 33.11474 -117.48606 13004 ft 446 kts 123°
2026-04-26 23:10 33.09891 -117.45414 13005 ft 447 kts 123°
2026-04-26 23:11 33.08311 -117.42229 13004 ft 447 kts 123°
2026-04-26 23:11 33.06711 -117.39053 12999 ft 445 kts 124°
2026-04-26 23:11 33.04974 -117.36073 12990 ft 445 kts 129°
2026-04-26 23:11 33.03112 -117.33138 12583 ft 436 kts 130°
2026-04-26 23:12 33.01276 -117.30319 12075 ft 429 kts 130°
2026-04-26 23:12 32.99437 -117.27528 11570 ft 426 kts 130°
2026-04-26 23:12 32.97635 -117.24816 11072 ft 421 kts 130°
2026-04-26 23:12 32.95852 -117.22151 10566 ft 398 kts 131°
2026-04-26 23:13 32.94181 -117.19656 10059 ft 373 kts 131°
2026-04-26 23:13 32.92625 -117.17335 9660 ft 339 kts 130°
2026-04-26 23:13 32.91244 -117.15276 9485 ft 302 kts 131°
2026-04-26 23:13 32.89971 -117.13377 9209 ft 289 kts 131°
2026-04-26 23:14 32.88716 -117.11516 8915 ft 291 kts 131°
2026-04-26 23:14 32.87478 -117.09688 7869 ft 288 kts 131°
2026-04-26 23:14 32.86235 -117.07856 6705 ft 281 kts 131°
2026-04-26 23:14 32.85000 -117.06042 6020 ft 290 kts 131°
2026-04-26 23:15 32.83778 -117.04252 6014 ft 280 kts 131°
2026-04-26 23:15 32.82536 -117.02434 6006 ft 283 kts 131°
2026-04-26 23:15 32.81294 -117.00614 6020 ft 285 kts 131°
2026-04-26 23:15 32.80046 -116.98786 6017 ft 285 kts 131°
2026-04-26 23:16 32.78796 -116.96956 5801 ft 289 kts 131°
2026-04-26 23:16 32.77544 -116.95123 5297 ft 284 kts 131°
2026-04-26 23:16 32.76298 -116.93303 4792 ft 283 kts 131°
2026-04-26 23:16 32.75062 -116.91500 4286 ft 280 kts 131°
2026-04-26 23:17 32.73837 -116.89715 3819 ft 276 kts 131°
2026-04-26 23:17 32.72657 -116.87996 3812 ft 268 kts 131°
2026-04-26 23:17 32.71459 -116.86256 3815 ft 272 kts 131°
2026-04-26 23:17 32.69975 -116.84960 3734 ft 269 kts 161°
2026-04-26 23:18 32.68164 -116.84865 3715 ft 261 kts 197°
2026-04-26 23:18 32.66688 -116.86015 3723 ft 255 kts 232°
2026-04-26 23:18 32.65933 -116.87889 3773 ft 253 kts 257°
2026-04-26 23:18 32.66127 -116.89930 3788 ft 254 kts 289°
2026-04-26 23:19 32.66816 -116.91866 3836 ft 257 kts 289°
2026-04-26 23:19 32.67312 -116.93887 3835 ft 251 kts 284°
2026-04-26 23:19 32.67763 -116.95848 3610 ft 254 kts 285°
2026-04-26 23:19 32.68250 -116.97875 3613 ft 254 kts 285°
2026-04-26 23:20 32.68722 -116.99829 3103 ft 246 kts 285°
2026-04-26 23:20 32.69202 -117.01825 2719 ft 245 kts 285°
2026-04-26 23:20 32.69668 -117.03752 2721 ft 249 kts 285°
2026-04-26 23:20 32.70142 -117.05709 2612 ft 241 kts 285°
2026-04-26 23:21 32.70614 -117.07662 2028 ft 254 kts 285°
2026-04-26 23:21 32.71080 -117.09554 1992 ft 224 kts 285°
2026-04-26 23:21 32.71465 -117.11199 1607 ft 188 kts 284°
2026-04-26 23:21 32.71770 -117.12589 1176 ft 161 kts 283°
2026-04-26 23:22 32.72053 -117.13788 791 ft 146 kts 285°
2026-04-26 23:22 32.72329 -117.14898 491 ft 131 kts 285°
2026-04-26 23:22 32.72587 -117.15871 328 ft 119 kts 285°
2026-04-26 23:22 32.72818 -117.16771 199 ft 110 kts 285°
2026-04-26 23:23 32.73017 -117.17592 64 ft 102 kts 285°
2026-04-26 23:23 32.73195 -117.18329 22 ft 72 kts 285°
2026-04-26 23:23 32.73283 -117.18695 23 ft 32 kts 285°
2026-04-26 23:23 32.73369 -117.18823 20 ft 13 kts 23°
2026-04-26 23:24 32.73378 -117.18818 19 ft 0 kts 23°
2026-04-26 23:24 32.73379 -117.18818 19 ft 2 kts 23°
2026-04-26 23:24 32.73412 -117.18788 19 ft 10 kts 57°
2026-04-26 23:25 32.73401 -117.18684 18 ft 16 kts 107°
2026-04-26 23:25 32.73356 -117.18517 23 ft 27 kts 108°
2026-04-26 23:25 32.73295 -117.18265 20 ft 34 kts 104°
2026-04-26 23:25 32.73247 -117.18045 19 ft 19 kts 100°
2026-04-26 23:26 32.73316 -117.17963 23 ft 14 kts 21°
2026-04-26 23:26 32.73382 -117.17892 22 ft 14 kts 69°
2026-04-26 23:26 32.73394 -117.17860 22 ft 0 kts 66°